This is the latest recevied weather packets stored in our database for station/object N6SPP. If no packets are shown the sender has not sent any weather packets the latest 10 day(s).
| Time | Temp. | Humidity | Pressure | Rain* | Wind** | Luminosity | Snow |
|---|---|---|---|---|---|---|---|
| 1777338782 | 17.78° C | 56% | 1018.6 hPa | 0 mm | - | 131 W/m² | - |
| 1777338480 | 18.33° C | 55% | 1018.7 hPa | 0 mm | - | 147 W/m² | - |
| 1777338177 | 18.89° C | 53% | 1018.4 hPa | 0 mm | - | 160 W/m² | - |
| 1777337872 | 18.33° C | 54% | 1018.6 hPa | 0 mm | - | 170 W/m² | - |
| 1777337570 | 18.33° C | 53% | 1018.6 hPa | 0 mm | - | 67 W/m² | - |
| 1777337267 | 18.89° C | 53% | 1018.7 hPa | 0 mm | - | 129 W/m² | - |
| 1777336965 | 18.33° C | 53% | 1018.7 hPa | 0 mm | - | 218 W/m² | - |
| 1777336664 | 18.89° C | 53% | 1018.6 hPa | 0 mm | - | 233 W/m² | - |
| 1777336362 | 18.89° C | 53% | 1018.7 hPa | 0 mm | - | 223 W/m² | - |
| 1777336058 | 18.33° C | 54% | 1018.6 hPa | 0 mm | - | 260 W/m² | - |
| 1777335755 | 18.89° C | 54% | 1018.7 hPa | 0 mm | - | 276 W/m² | - |
| 1777335452 | 18.89° C | 53% | 1018.7 hPa | 0 mm | - | 255 W/m² | - |
| 1777335150 | 19.44° C | 52% | 1018.7 hPa | 0 mm | - | 274 W/m² | - |
| 1777334847 | 18.89° C | 53% | 1018.6 hPa | 0 mm | - | 320 W/m² | - |
| 1777334545 | 18.89° C | 54% | 1018.5 hPa | 0 mm | - | 335 W/m² | - |
| 1777334241 | 19.44° C | 53% | 1018.6 hPa | 0 mm | - | 370 W/m² | - |
| 1777333940 | 19.44° C | 52% | 1018.5 hPa | 0 mm | - | 367 W/m² | - |
| 1777333638 | 19.44° C | 52% | 1018.4 hPa | 0 mm | - | 463 W/m² | - |
| 1777333333 | 18.89° C | 53% | 1018.6 hPa | 0 mm | - | 226 W/m² | - |
| 1777333027 | 18.89° C | 54% | 1018.6 hPa | 0 mm | - | 224 W/m² | - |
| 1777332725 | 18.89° C | 53% | 1018.5 hPa | 0 mm | - | 326 W/m² | - |
| 1777332421 | 19.44° C | 52% | 1018.3 hPa | 0 mm | - | 267 W/m² | - |
| 1777332118 | 18.89° C | 53% | 1018.6 hPa | 0 mm | - | 581 W/m² | - |
| 1777331815 | 18.33° C | 54% | 1018.6 hPa | 0 mm | - | 293 W/m² | - |
| 1777331511 | 18.33° C | 55% | 1018.6 hPa | 0 mm | - | 222 W/m² | - |
* Rain latest hour (hover to see other rain measurements)
** Current wind speed in m/s (hover to see current wind gust speed)